Location: *
(31.2983°S, 151.4094°E)
Time: 05:56:16
(UTC+00:00)

BREEZE-M DEB (TANK) - Pass Details

Date: 25 August 2019
Orbit: 315 x 14870 km, 49.6° (Epoch: 21 September)

Event Time Altitude Azimuth Distance (km) Brightness Sun altitude
Exits shadow 19:18:43 - 216° (SW) 2,376 5.9 -13.5°
Reaches altitude 10° 19:19:36 10° 211° (SSW) 1,963 5.5 -13.3°
Maximum altitude 19:22:38 23° 154° (SSE) 877 4.3 -12.7°
Drops below altitude 10° 19:24:36 10° 94° (E) 1,250 6.3 -12.3°
Sets 19:26:26 0° 76° (ENE) 2,075 8.0 -11.9°
